Location: Natural Bridges National Monument
(37.6093°N, 109.9767°W)
Time: 15:15:59
(UTC-06:00)

Cosmos 1727 Rocket - Visible Passes

Search period start: 27 May 2018 00:00
Search period end: 06 June 2018 00:00
Orbit: 960 x 997 km, 82.9° (Epoch: 27 May)

Date Brightness Start Highest point End Pass type
(mag) Time Alt. Az. Time Alt. Az. Time Alt. Az.
28 May 7.2 05:07:08 10° E 05:08:24 11° E 05:09:41 10° ENE visible
29 May 6.5 05:29:41 10° SE 05:34:15 22° E 05:38:50 10° NE visible
01 Jun 6.5 05:03:43 10° SE 05:07:58 20° E 05:12:14 10° NE visible
04 Jun 6.5 04:37:47 10° ESE 04:41:40 18° E 04:45:34 10° NE visible
05 Jun 5.7 05:02:13 10° SSE 05:07:39 34° E 05:13:06 10° NNE visible
